Погода в Бора-Тайге

Россия / Республика Тыва     51°24′15″N   91°08′47″E
темп.,
°C
ветер,
м/с
пор.,
м/с
влажн.,
%
обл.,
%
осадки,
мм/ч
давл.,
гПа
погр.,
м
18 апреля, вс
вс1801:000ссз346513 0.0 101898
04:00−2сз336718 0.0 101952
07:00−1ссз225790 0.0 1019102
10:00+3юв22415 0.0 1016751
13:00+8ююв353188 0.0 10121874
16:00+9вюв232893 0.0 10101249
19:00+10с242679 0.0 1009428
22:00+4с325245 0.0 101337
19 апреля, пн
пн1901:00+2ссз225746 0.0 101324
04:00+1сз115778 0.0 101110
07:00+2зюз115526 0.0 101018
10:00+9ю36295 0.0 1005942
13:00+15зюз91619100 0.0 10003787
16:00+13з81426100 0.0 10003039
19:00+5ссз564378 0.1 1007658
22:00−1ссз4466100 0.4 1012395
20 апреля, вт
вт2001:00−2ссз3380100 1.0 1013457
04:00−4ссз3478100 1.4 1015487
07:00−5ссз3478100 1.8 1017482
10:00−4с2262100 0.2 1017921
13:00−2ссв2258100 0.3 10151229
16:000св2253100 0.1 10131251
19:00−1ссз2357100 0.2 10141008
22:00−3ссз3451100 0.1 1018691
21 апреля, ср
ср2101:00−5ссз3452100 0.1 1020445
04:00−6сз2351100 0.0 1021412
07:00−7ссз235831 0.0 1023194
10:00−4в213946 0.0 10221299
13:00−1вюв323471 0.0 10191703
16:00+1вюв32299 0.0 10161753
19:00+1в22300 0.0 10161312
22:00−2ссв23442 0.0 101980
22 апреля, чт
чт2201:00−4ссз325840 0.0 102040
04:00−5сз2270100 0.0 102236
07:00−4ссз126377 0.0 1023142
10:00−1в1248100 0.0 10231208
13:00+2в2240100 0.1 10221719
16:00+3с3350100 0.4 10221404
19:00+1с3448100 0.8 10251317
22:00−1ссз3457100 0.0 1030550